Weather History for KWWR - July, 2013

Change the Weather History Date:

Tuesday, July 16, 2013

  Actual Average (KGAG) Record (KGAG)
Temperature  
Mean Temperature 72 °F -  
Max Temperature 77 °F 93 °F 108 °F (2011)
Min Temperature 66 °F 67 °F 56 °F (1973)
Cooling Degree Days 6    
Growing Degree Days 22 (Base 50)    
Moisture  
Dew Point 65 °F    
Average Humidity 85    
Maximum Humidity 94    
Minimum Humidity 69    
Precipitation  
Precipitation 0.49 in - - ()
Sea Level Pressure  
Sea Level Pressure 30.25 in    
Wind  
Wind Speed 9 mph (ESE)    
Max Wind Speed 22 mph    
Max Gust Speed 29 mph    
Visibility 8 miles    
Events Rain    
Averages and records for this station are not official NWS values.
T = Trace of Precipitation, MM = Missing Value Source: NWS Daily Summary

Daily Weather History Graph

Daily Weather History Graph

Search for Another Location

Airport or City:

Trip Planner

Search our weather history database for the weather conditions in past years. The results will help you decide how hot, cold, wet, or windy it might be!

Date:

Astronomy

Jul. 16, 2013 Rise Set
Actual Time 6:32 AM CDT 8:55 PM CDT
Civil Twilight 6:03 AM CDT 9:24 PM CDT
Nautical Twilight 5:26 AM CDT 10:01 PM CDT
Astronomical Twilight 4:46 AM CDT 10:41 PM CDT
Moon 2:42 PM CDT (7/16) 12:58 AM CDT (7/16)
Length of Visible Light 15h 21m
Length of Day
14h 22m
First Quarter, 56% of the Moon is Illuminated
Jul 16
First Quarter
Jul 22
Full
Jul 29
Last Quarter
Aug 6
New
Aug 14
First Quarter

Hourly Weather History & Observations

Time (CDT) Temp. Dew Point Humidity Pressure Visibility Wind Dir Wind Speed Gust Speed Precip Events Conditions
12:15 AM 68.0 °F 62.6 °F 83% 30.20 in 10.0 mi SE 11.5 mph - N/A   Overcast
12:35 AM 66.2 °F 62.6 °F 88% 30.20 in 10.0 mi ESE 8.1 mph - N/A   Overcast
12:55 AM 66.2 °F 62.6 °F 88% 30.20 in 10.0 mi SE 9.2 mph - N/A   Overcast
1:15 AM 66.2 °F 62.6 °F 88% 30.21 in 4.0 mi SE 8.1 mph - N/A Rain Light Rain
1:35 AM 66.2 °F 62.6 °F 88% 30.20 in 5.0 mi SE 8.1 mph - N/A   Light Drizzle
1:55 AM 66.2 °F 62.6 °F 88% 30.20 in 3.0 mi SE 8.1 mph - N/A   Drizzle
2:15 AM 66.2 °F 62.6 °F 88% 30.20 in 10.0 mi ESE 6.9 mph - N/A   Overcast
2:35 AM 66.2 °F 64.4 °F 94% 30.20 in 7.0 mi ESE 8.1 mph - N/A   Overcast
2:55 AM 66.2 °F 64.4 °F 94% 30.20 in 4.0 mi ESE 4.6 mph - N/A   Drizzle
3:15 AM 66.2 °F 64.4 °F 94% 30.19 in 4.0 mi ESE 6.9 mph - 0.01 in   Overcast
3:35 AM 66.2 °F 64.4 °F 94% 30.20 in 5.0 mi ESE 5.8 mph - 0.01 in   Overcast
3:55 AM 66.2 °F 64.4 °F 94% 30.19 in 5.0 mi ESE 8.1 mph - 0.01 in Rain Light Rain
4:15 AM 68.0 °F 64.4 °F 88% 30.19 in 10.0 mi ESE 6.9 mph - N/A   Overcast
4:35 AM 68.0 °F 64.4 °F 88% 30.19 in 10.0 mi East 6.9 mph - N/A   Overcast
4:55 AM 68.0 °F 64.4 °F 88% 30.19 in 5.0 mi East 8.1 mph - N/A   Overcast
5:15 AM 68.0 °F 64.4 °F 88% 30.20 in 10.0 mi East 8.1 mph - N/A   Overcast
5:35 AM 68.0 °F 64.4 °F 88% 30.20 in 7.0 mi ESE 8.1 mph - N/A   Overcast
5:55 AM 68.0 °F 64.4 °F 88% 30.20 in 7.0 mi ESE 8.1 mph - N/A   Overcast
6:15 AM 68.0 °F 64.4 °F 88% 30.21 in 5.0 mi ESE 9.2 mph - N/A   Overcast
6:35 AM 66.2 °F 64.4 °F 94% 30.21 in 4.0 mi ESE 9.2 mph 18.4 mph 0.06 in Rain Rain
6:55 AM 68.0 °F 64.4 °F 88% 30.22 in 5.0 mi East 8.1 mph - 0.07 in   Drizzle
7:15 AM 68.0 °F 64.4 °F 88% 30.23 in 10.0 mi ESE 9.2 mph - N/A   Overcast
7:35 AM 66.2 °F 64.4 °F 94% 30.23 in 7.0 mi ESE 9.2 mph - N/A   Overcast
7:55 AM 68.0 °F 64.4 °F 88% 30.24 in 10.0 mi ESE 10.4 mph 16.1 mph N/A   Overcast
8:15 AM 68.0 °F 64.4 °F 88% 30.24 in 10.0 mi ESE 9.2 mph - N/A Rain Light Rain
8:35 AM 68.0 °F 64.4 °F 88% 30.25 in 10.0 mi ESE 11.5 mph - N/A Rain Light Rain
8:55 AM 69.8 °F 64.4 °F 83% 30.25 in 7.0 mi ESE 17.3 mph - N/A   Overcast
9:15 AM 69.8 °F 64.4 °F 83% 30.25 in 10.0 mi East 15.0 mph 19.6 mph N/A   Overcast
9:35 AM 69.8 °F 64.4 °F 83% 30.26 in 10.0 mi East 13.8 mph 17.3 mph N/A   Overcast
9:55 AM 69.8 °F 64.4 °F 83% 30.26 in 10.0 mi ESE 12.7 mph 17.3 mph N/A   Overcast
10:15 AM 69.8 °F 64.4 °F 83% 30.27 in 10.0 mi ESE 12.7 mph - N/A   Overcast
10:55 AM 69.8 °F 66.2 °F 88% 30.26 in 7.0 mi East 15.0 mph - N/A Rain Rain
11:15 AM 71.6 °F 64.4 °F 78% 30.26 in 10.0 mi East 15.0 mph - N/A   Overcast
11:35 AM 71.6 °F 66.2 °F 83% 30.26 in 10.0 mi ESE 12.7 mph - N/A   Overcast
11:55 AM 69.8 °F 66.2 °F 88% 30.27 in 4.0 mi ESE 9.2 mph - 0.07 in Rain Light Rain
12:15 PM 71.6 °F 68.0 °F 88% 30.27 in 10.0 mi ESE 16.1 mph - N/A   Overcast
12:35 PM 71.6 °F 68.0 °F 88% 30.27 in 10.0 mi ESE 11.5 mph - N/A   Overcast
12:55 PM 73.4 °F 68.0 °F 83% 30.26 in 10.0 mi East 11.5 mph - N/A   Overcast
1:15 PM 73.4 °F 68.0 °F 83% 30.26 in 7.0 mi ESE 11.5 mph - N/A Rain Light Rain
1:35 PM 71.6 °F 68.0 °F 88% 30.26 in 7.0 mi East 10.4 mph - 0.01 in Rain Light Rain
1:55 PM 73.4 °F 69.8 °F 88% 30.25 in 10.0 mi East 10.4 mph - 0.01 in   Overcast
2:15 PM 75.2 °F 68.0 °F 78% 30.25 in 10.0 mi ESE 13.8 mph 18.4 mph N/A   Overcast
2:35 PM 77.0 °F 66.2 °F 69% 30.24 in 10.0 mi SE 17.3 mph 23.0 mph N/A   Overcast
3:55 PM 75.2 °F 68.0 °F 78% 30.24 in 10.0 mi SE 18.4 mph - 0.01 in   Overcast
4:15 PM 73.4 °F 64.4 °F 73% 30.27 in 2.0 mi SSW 21.9 mph 28.8 mph 0.13 in Rain Heavy Rain
4:35 PM 68.0 °F 64.4 °F 88% 30.28 in 10.0 mi SSW 18.4 mph - 0.21 in Rain Light Rain
4:55 PM 68.0 °F 64.4 °F 88% 30.28 in 4.0 mi South 16.1 mph - 0.30 in Rain Rain
5:15 PM 68.0 °F 64.4 °F 88% 30.28 in 10.0 mi SSW 11.5 mph 17.3 mph 0.02 in Rain Rain
5:35 PM 68.0 °F 64.4 °F 88% 30.27 in 10.0 mi SSW 8.1 mph - 0.02 in   Overcast
5:55 PM 69.8 °F 64.4 °F 83% 30.27 in 10.0 mi SW 9.2 mph - 0.02 in   Mostly Cloudy
6:15 PM 69.8 °F 64.4 °F 83% 30.27 in 10.0 mi SSW 5.8 mph - N/A   Scattered Clouds
6:35 PM 69.8 °F 64.4 °F 83% 30.27 in 10.0 mi SSW 3.5 mph - N/A   Scattered Clouds
6:55 PM 69.8 °F 64.4 °F 83% 30.27 in 10.0 mi Calm Calm - N/A   Clear
7:15 PM 69.8 °F 64.4 °F 83% 30.27 in 10.0 mi Calm Calm - N/A   Clear
7:35 PM 71.6 °F 64.4 °F 78% 30.27 in 10.0 mi SSW 4.6 mph - N/A   Clear
7:55 PM 71.6 °F 64.4 °F 78% 30.27 in 10.0 mi SSW 5.8 mph - N/A   Clear
8:15 PM 71.6 °F 64.4 °F 78% 30.28 in 10.0 mi Calm Calm - N/A   Clear
8:35 PM 71.6 °F 64.4 °F 78% 30.28 in 10.0 mi Calm Calm - N/A   Clear
8:55 PM 69.8 °F 64.4 °F 83% 30.29 in 10.0 mi South 3.5 mph - N/A   Clear
9:15 PM 69.8 °F 64.4 °F 83% 30.29 in 10.0 mi Calm Calm - N/A   Clear
9:35 PM 69.8 °F 64.4 °F 83% 30.29 in 10.0 mi Calm Calm - N/A   Scattered Clouds
9:55 PM 69.8 °F 64.4 °F 83% 30.31 in 10.0 mi East 3.5 mph - N/A   Scattered Clouds
10:15 PM 69.8 °F 64.4 °F 83% 30.32 in 10.0 mi ENE 4.6 mph - N/A   Scattered Clouds
10:35 PM 69.8 °F 64.4 °F 83% 30.33 in 10.0 mi ENE 4.6 mph - N/A   Scattered Clouds
10:55 PM 69.8 °F 64.4 °F 83% 30.34 in 10.0 mi East 8.1 mph - N/A   Mostly Cloudy
11:15 PM 69.8 °F 64.4 °F 83% 30.33 in 10.0 mi East 4.6 mph - N/A   Scattered Clouds
11:35 PM 68.0 °F 64.4 °F 88% 30.33 in 10.0 mi ENE 4.6 mph - N/A   Clear
11:55 PM 68.0 °F 64.4 °F 88% 30.34 in 10.0 mi ENE 3.5 mph - N/A   Clear